User: anonymous   Login
Location: Caltech
(34.1382°N, 118.1253°W)
Time: 12:22:11
(UTC-08:00)
Language:

ALOS - Orbit

View from above orbital plane
View from above orbital plane
View from above satellite
View from above satellite

Ground track
Ground track

The orbit data is extracted from the following two-line orbital elements,

1 28931U 06002A   16339.19417625  .00000213  00000-0  51003-4 0  9997
2 28931  97.8652  10.0959 0001040 127.9830 232.1466 14.62284739578966
Epoch (UTC): 04 December 2016 04:39:36
Eccentricity: 0.0001040
inclination: 97.8652°
perigee height: 685 km
apogee height: 686 km
right ascension of ascending node: 10.0959°
argument of perigee: 127.9830°
revolutions per day: 14.62284739
mean anomaly at epoch: 232.1466°
orbit number at epoch: 57896

The dashed part of the orbit path shows where the satellite is in the earth's shadow,  

DLR